Ponca City, OK

11:09 AM CDT on October 18, 2017 (GMT -0500)
Ponca City Municipal

Weather History for KPNC - September, 2012

Change the Weather History Date:

Saturday, September 15, 2012

  Actual Average Record
Temperature  
Mean Temperature 64 °F -  
Max Temperature 68 °F 83 °F 104 °F (1965)
Min Temperature 59 °F 62 °F 40 °F (1961)
Degree Days  
Heating Degree Days 2    
Growing Degree Days 14 (Base 50)    
Moisture  
Dew Point 60 °F    
Average Humidity 88    
Maximum Humidity 96    
Minimum Humidity 78    
Precipitation  
Precipitation 0.00 in - - ()
Sea Level Pressure  
Sea Level Pressure 30.15 in    
Wind  
Wind Speed 3 mph (North)    
Max Wind Speed 6 mph    
Max Gust Speed -    
Visibility 9 miles    
Events Rain    
Averages and records for this station are not official NWS values.
T = Trace of Precipitation, MM = Missing Value Source: NWS Daily Summary

Daily Weather History Graph

Daily Weather History Graph

Search for Another Location

Airport or City:

Trip Planner

Search our weather history database for the weather conditions in past years. The results will help you decide how hot, cold, wet, or windy it might be!

Date:

Astronomy

Sep. 15, 2012 Rise Set
Actual Time 7:11 AM CDT 7:35 PM CDT
Civil Twilight 6:45 AM CDT 8:00 PM CDT
Nautical Twilight 6:14 AM CDT 8:31 PM CDT
Astronomical Twilight 5:43 AM CDT 9:02 PM CDT
Moon 6:42 AM CDT (9/15) 7:07 PM CDT (9/15)
Length of Visible Light 13h 15m
Length of Day
12h 24m
Waning Crescent, 0% of the Moon is Illuminated
Sep 15
Waning Crescent
Sep 15
New
Sep 22
First Quarter
Sep 29
Full
Oct 8
Last Quarter

Hourly Weather History & Observations

Time (CDT) Temp. Dew Point Humidity Pressure Visibility Wind Dir Wind Speed Gust Speed Precip Events Conditions
12:53 AM 60.1 °F 57.0 °F 90% 30.23 in 10.0 mi NE 5.8 mph - N/A   Overcast
1:53 AM 60.1 °F 57.9 °F 93% 30.22 in 4.0 mi NNE 4.6 mph - 0.00 in Rain Light Rain
2:53 AM 59.0 °F 57.2 °F 94% 30.22 in 10.0 mi North 5.8 mph - N/A   Overcast
3:53 AM 59.0 °F 57.9 °F 96% 30.19 in 9.0 mi North 4.6 mph - N/A   Overcast
4:53 AM 59.0 °F 57.9 °F 96% 30.19 in 9.0 mi North 5.8 mph - N/A   Overcast
5:53 AM 59.0 °F 57.9 °F 96% 30.19 in 5.0 mi NNE 4.6 mph - N/A   Overcast
6:53 AM 60.1 °F 57.9 °F 93% 30.19 in 6.0 mi North 3.5 mph - N/A   Overcast
7:51 AM 60.8 °F 57.2 °F 88% 30.20 in 7.0 mi North 4.6 mph - N/A   Overcast
8:53 AM 61.0 °F 59.0 °F 93% 30.18 in 10.0 mi NNE 4.6 mph - N/A   Overcast
9:53 AM 61.0 °F 59.0 °F 93% 30.19 in 9.0 mi North 4.6 mph - N/A   Unknown
10:10 AM 62.6 °F 60.8 °F 94% 30.20 in 10.0 mi North 5.8 mph - N/A   Overcast
10:51 AM 62.6 °F 60.8 °F 94% 30.20 in 10.0 mi North 4.6 mph - N/A   Overcast
10:53 AM 63.0 °F 60.1 °F 90% 30.18 in 10.0 mi North 4.6 mph - N/A   Overcast
11:53 AM 64.0 °F 60.1 °F 87% 30.18 in 10.0 mi Calm Calm - N/A   Overcast
12:18 PM 64.4 °F 59.0 °F 83% 30.20 in 10.0 mi Calm Calm - N/A   Overcast
12:53 PM 64.9 °F 59.0 °F 81% 30.17 in 10.0 mi Calm Calm - N/A   Overcast
1:53 PM 66.0 °F 60.1 °F 81% 30.15 in 10.0 mi NNW 3.5 mph - N/A   Overcast
2:53 PM 66.0 °F 60.1 °F 81% 30.14 in 10.0 mi Calm Calm - N/A   Overcast
3:53 PM 66.9 °F 60.1 °F 79% 30.12 in 10.0 mi Calm Calm - N/A   Overcast
4:53 PM 66.9 °F 60.1 °F 79% 30.10 in 10.0 mi Calm Calm - N/A   Overcast
5:53 PM 68.0 °F 61.0 °F 78% 30.09 in 10.0 mi Calm Calm - N/A   Overcast
6:51 PM 66.2 °F 60.8 °F 83% 30.11 in 10.0 mi Calm Calm - N/A   Overcast
6:53 PM 66.9 °F 61.0 °F 81% 30.09 in 10.0 mi Calm Calm - N/A   Overcast
7:53 PM 66.9 °F 62.1 °F 84% 30.08 in 10.0 mi Calm Calm - N/A   Overcast
8:53 PM 66.9 °F 62.1 °F 84% 30.09 in 10.0 mi Calm Calm - N/A   Overcast
9:53 PM 66.0 °F 62.1 °F 87% 30.10 in 10.0 mi Calm Calm - N/A   Overcast
10:27 PM 66.2 °F 62.6 °F 88% 30.11 in 10.0 mi Calm Calm - N/A   Overcast
10:53 PM 66.9 °F 62.1 °F 84% 30.09 in 10.0 mi Calm Calm - N/A   Overcast
11:53 PM 66.0 °F 63.0 °F 90% 30.09 in 10.0 mi Calm Calm - N/A   Overcast